G4SEJ Weather Reports


time (UTC)temp
F
wind
direction
speed
knots
gust
knots
rain 1hr
in
rain 24hr
in
rain mn
in
humidity
%
barometer
mb
20260506144050 51 27 2.6 6.1 0.01 0.01 0.01 88 1011.4
20260506143543 51 44 3.5 7.0 0.01 0.01 0.01 87 1011.5
20260506143041 52 62 3.5 7.0 0.00 0.00 0.00 86 1011.5
20260506142541 52 71 2.6 8.7 0.00 0.00 0.00 86 1011.4
20260506141539 52 67 3.5 8.7 0.00 0.00 0.00 83 1011.4
20260506140535 53 332 3.5 2.6 0.00 0.00 0.00 82 1011.3
20260506134704 53 105 4.3 9.6 0.00 0.00 0.00 81 1011.4
20260506134205 54 68 3.5 9.6 0.00 0.00 0.00 79 1011.4
20260506133704 54 31 2.6 7.0 0.00 0.00 0.00 78 1011.3
20260506132206 54 62 2.6 7.0 0.00 0.00 0.00 75 1011.2
20260506130700 55 51 3.5 8.7 0.00 0.00 0.00 74 1011.3
20260506125659 56 65 2.6 7.0 0.00 0.00 0.00 71 1011.2
20260506125200 56 59 2.6 7.0 0.00 0.00 0.00 70 1011.2
20260506124700 56 33 2.6 7.0 0.00 0.00 0.00 71 1011.2
20260506124158 56 7 2.6 7.0 0.00 0.00 0.00 70 1011.2
20260506123658 56 56 2.6 6.1 0.00 0.00 0.00 70 1011.1
20260506123154 57 56 1.7 6.1 0.00 0.00 0.00 69 1011.2
20260506122656 57 84 1.7 6.1 0.00 0.00 0.00 71 1011.2
20260506122153 56 82 1.7 6.1 0.00 0.00 0.00 69 1011.2
20260506121150 56 269 1.7 5.2 0.00 0.00 0.00 71 1011.1
20260506120651 56 85 1.7 4.3 0.00 0.00 0.00 71 1011.1
20260506120144 56 276 1.7 4.3 0.00 0.00 0.00 72 1011.1
20260506115644 55 251 0.9 5.2 0.00 0.00 0.00 73 1011.1
20260506115145 55 307 0.9 5.2 0.00 0.00 0.00 73 1011.2
20260506114644 55 37 1.7 5.2 0.00 0.00 0.00 74 1011.2
20260506114145 54 357 2.6 5.2 0.00 0.00 0.00 74 1011.2
20260506113145 54 50 1.7 6.1 0.00 0.00 0.00 74 1011.1
20260506112641 54 44 1.7 5.2 0.00 0.00 0.00 74 1011.2
20260506112141 54 90 1.7 5.2 0.00 0.00 0.00 74 1011.2
20260506111638 54 9 1.7 5.2 0.00 0.00 0.00 75 1011.2
20260506111139 54 77 1.7 2.6 0.00 0.00 0.00 75 1011.2
20260506105714 54 297 2.6 7.8 0.00 0.00 0.00 74 1011.2
20260506105214 54 25 2.6 7.8 0.00 0.00 0.00 74 1011.2
20260506104715 54 67 2.6 5.2 0.00 0.00 0.00 74 1011.2
20260506104213 55 20 2.6 7.8 0.00 0.00 0.00 74 1011.2
20260506103713 55 34 3.5 8.7 0.00 0.00 0.00 73 1011.2
20260506103207 55 47 2.6 8.7 0.00 0.00 0.00 72 1011.3
20260506102707 55 39 3.5 7.8 0.00 0.00 0.00 73 1011.3
20260506102207 55 321 3.5 9.6 0.00 0.00 0.00 74 1011.2
20260506101707 55 47 3.5 9.6 0.00 0.00 0.00 73 1011.2
20260506100214 54 80 3.5 8.7 0.00 0.00 0.00 75 1011.2
20260506095659 54 30 2.6 8.7 0.00 0.00 0.00 77 1011.1
20260506095201 53 330 2.6 7.0 0.00 0.00 0.00 77 1011.1
20260506094701 53 355 2.6 6.1 0.00 0.00 0.00 78 1011.2
20260506093700 52 79 2.6 6.1 0.00 0.00 0.00 79 1011.2
20260506093157 52 80 2.6 10.4 0.00 0.00 0.00 80 1011.2
20260506092657 52 61 2.6 10.4 0.00 0.00 0.00 80 1011.2
20260506092156 52 64 2.6 8.7 0.00 0.00 0.00 79 1011.1
20260506091656 52 5 2.6 9.6 0.00 0.00 0.00 80 1011.1
20260506090657 52 237 2.6 7.0 0.00 0.00 0.00 82 1011.0
20260506085650 51 261 2.6 7.0 0.00 0.00 0.00 82 1010.9
20260506085151 51 158 1.7 7.0 0.00 0.00 0.00 82 1010.9
20260506084151 51 345 2.6 9.6 0.00 0.00 0.00 82 1010.9
20260506083650 51 162 2.6 9.6 0.00 0.00 0.00 82 1010.9
20260506082648 51 20 2.6 7.0 0.00 0.00 0.00 83 1010.8
20260506082149 51 339 1.7 7.0 0.00 0.00 0.00 83 1010.8
20260506081649 51 124 1.7 7.8 0.00 0.00 0.00 83 1010.8
20260506081147 51 34 1.7 8.7 0.00 0.00 0.00 84 1010.9
20260506080649 51 47 1.7 8.7 0.00 0.00 0.00 84 1010.9
20260506080146 51 20 1.7 7.8 0.00 0.00 0.00 84 1010.8
20260506073137 50 296 1.7 7.0 0.00 0.00 0.00 85 1010.7
20260506072631 50 265 1.7 8.7 0.00 0.00 0.00 85 1010.7
20260506072127 50 261 2.6 8.7 0.00 0.00 0.00 85 1010.6
20260506071629 50 272 2.6 7.0 0.00 0.00 0.00 84 1010.5
20260506070627 51 274 1.7 6.1 0.00 0.00 0.00 84 1010.5
20260506061123 49 311 2.6 10.4 0.00 0.00 0.00 84 1010.3
20260506060617 49 61 3.5 10.4 0.00 0.00 0.00 85 1010.3
20260506060118 49 63 3.5 8.7 0.00 0.00 0.00 85 1010.3
20260506051115 48 287 3.5 12.2 0.00 0.00 0.00 86 1010.1
20260506050113 48 53 2.6 7.0 0.00 0.00 0.00 85 1010.2
20260506045109 49 311 1.7 6.1 0.00 0.00 0.00 85 1010.3
20260506044609 49 21 1.7 7.0 0.00 0.00 0.00 84 1010.3
20260506043609 49 84 2.6 7.8 0.00 0.00 0.00 84 1010.2
20260506043109 49 66 2.6 7.8 0.00 0.00 0.00 84 1010.2
20260506042602 49 208 2.6 5.2 0.00 0.00 0.00 84 1010.2
20260506042102 49 87 2.6 7.8 0.00 0.00 0.00 84 1010.3
20260506041602 49 16 2.6 7.8 0.00 0.00 0.00 84 1010.2
20260506041101 49 40 2.6 7.0 0.00 0.00 0.00 85 1010.3
20260506040106 49 28 2.6 8.7 0.00 0.00 0.00 85 1010.3
20260506035602 49 29 2.6 8.7 0.00 0.00 0.00 85 1010.3
20260506035100 49 4 1.7 6.1 0.00 0.00 0.00 86 1010.4
20260506034557 49 338 1.7 5.2 0.00 0.00 0.00 86 1010.4
20260506033556 49 326 2.6 6.1 0.00 0.00 0.00 86 1010.4
20260506032555 49 24 2.6 6.1 0.00 0.00 0.00 86 1010.5
20260506032106 49 6 1.7 6.1 0.00 0.00 0.00 87 1010.5
20260506031600 49 86 1.7 5.2 0.00 0.00 0.00 87 1010.5
20260506031049 49 33 2.6 7.8 0.00 0.00 0.00 87 1010.5
20260506030548 49 53 2.6 7.8 0.00 0.00 0.00 87 1010.6
20260506030100 49 19 2.6 10.4 0.00 0.00 0.00 87 1010.6
20260506024548 49 48 1.7 8.7 0.00 0.00 0.00 88 1010.7
20260506024041 49 56 2.6 6.1 0.00 0.00 0.00 88 1010.7
20260506023042 50 315 1.7 7.0 0.00 0.00 0.00 88 1010.8
20260506022555 50 322 2.6 7.0 0.00 0.00 0.00 88 1010.8
20260506022043 50 40 2.6 7.0 0.00 0.00 0.00 88 1010.8
20260506021542 50 257 2.6 7.0 0.00 0.00 0.00 88 1010.8
20260506020551 50 70 2.6 7.8 0.00 0.00 0.00 87 1010.8
20260506020036 50 300 2.6 7.8 0.00 0.00 0.00 87 1010.8
20260506015536 50 63 2.6 7.8 0.00 0.00 0.00 87 1010.8
20260506015036 51 130 2.6 9.6 0.00 0.00 0.00 86 1010.8
20260506014536 51 43 3.5 9.6 0.00 0.00 0.00 85 1010.8
20260506014031 50 66 4.3 9.6 0.00 0.00 0.00 85 1010.8
20260506013031 50 57 3.5 9.6 0.00 0.00 0.00 85 1010.8
20260506012533 51 35 3.5 9.6 0.00 0.00 0.00 84 1010.9
20260506012030 51 49 4.3 10.4 0.00 0.00 0.00 85 1010.9
20260506011024 51 44 3.5 9.6 0.00 0.00 0.00 85 1010.9
20260506010524 51 35 3.5 8.7 0.00 0.00 0.00 84 1011.0
20260506010025 51 79 3.5 8.7 0.00 0.00 0.00 84 1011.0
20260506005525 51 28 4.3 8.7 0.00 0.00 0.00 84 1011.0
20260506005024 51 39 5.2 10.4 0.00 0.00 0.00 83 1011.0
20260506004523 51 45 5.2 10.4 0.00 0.00 0.00 83 1011.0
20260506004019 51 64 4.3 10.4 0.00 0.00 0.00 83 1011.1
20260506003018 51 57 4.3 10.4 0.00 0.00 0.00 84 1011.1
20260506002518 51 56 4.3 9.6 0.00 0.00 0.00 84 1011.1
20260506002018 51 63 4.3 9.6 0.00 0.00 0.00 84 1011.1
20260506001518 51 106 4.3 10.4 0.00 0.00 0.00 84 1011.0
20260506001012 51 18 4.3 10.4 0.00 0.00 0.00 83 1011.1
20260506000012 51 53 4.3 14.8 0.00 0.00 0.00 83 1011.2
20260505235012 51 78 3.5 10.4 0.00 0.00 0.00 83 1011.1
20260505234512 51 61 3.5 9.6 0.00 0.00 0.00 84 1011.2
20260505234007 51 81 5.2 10.4 0.00 0.00 0.00 84 1011.2
20260505233506 51 42 4.3 10.4 0.00 0.00 0.00 83 1011.2
20260505233006 51 79 4.3 10.4 0.00 0.00 0.00 83 1011.1
20260505232506 51 327 4.3 10.4 0.00 0.00 0.00 84 1011.1
20260505232006 51 84 4.3 11.3 0.00 0.00 0.00 84 1011.2
20260505231506 52 80 4.3 11.3 0.00 0.00 0.00 85 1011.1
20260505231000 52 40 4.3 10.4 0.00 0.00 0.00 85 1011.1
20260505230500 52 72 5.2 10.4 0.00 0.00 0.00 85 1011.1
20260505230001 52 69 4.3 10.4 0.00 0.00 0.00 86 1011.2
20260505225500 52 64 4.3 10.4 0.00 0.00 0.00 86 1011.2
20260505225000 52 66 4.3 10.4 0.00 0.00 0.00 87 1011.2
20260505223955 51 60 6.1 13.0 0.00 0.00 0.00 86 1011.3
20260505222953 51 40 6.1 12.2 0.00 0.00 0.00 86 1011.2
20260505222454 51 8 6.1 13.0 0.00 0.00 0.00 86 1011.2
20260505221954 51 49 6.1 13.0 0.00 0.00 0.00 86 1011.3
20260505221454 51 49 6.1 12.2 0.00 0.00 0.00 86 1011.2
20260505220451 52 65 6.1 12.2 0.00 0.00 0.00 87 1011.3
20260505215952 52 39 6.1 13.0 0.00 0.00 0.00 87 1011.3
20260505215452 52 55 7.0 13.9 0.00 0.00 0.00 86 1011.2
20260505214452 52 75 5.2 10.4 0.00 0.00 0.00 84 1011.2
20260505213446 52 67 5.2 10.4 0.00 0.00 0.00 82 1011.2
20260505212946 52 68 5.2 10.4 0.00 0.00 0.00 80 1011.2
20260505211446 52 37 6.1 12.2 0.00 0.00 0.00 76 1011.3
20260505210946 51 49 6.1 12.2 0.00 0.00 0.00 77 1011.3
20260505210439 51 49 5.2 12.2 0.00 0.00 0.00 78 1011.3
20260505205441 51 58 5.2 9.6 0.00 0.00 0.00 80 1011.2
20260505204940 51 74 5.2 7.0 0.00 0.00 0.00 82 1011.2
20260505203528 51 77 5.2 10.4 0.00 0.00 0.00 83 1011.2
20260505202025 51 56 4.3 7.8 0.00 0.00 0.00 85 1011.1
20260505201525 51 56 4.3 7.8 0.00 0.00 0.00 85 1011.0
20260505201024 51 59 4.3 7.8 0.00 0.00 0.00 85 1011.0
20260505200524 51 46 3.5 8.7 0.00 0.00 0.00 85 1010.9
20260505200023 51 49 4.3 8.7 0.00 0.00 0.00 85 1010.9
20260505195522 51 47 4.3 7.8 0.00 0.00 0.00 84 1010.9
20260505195017 51 59 4.3 7.8 0.00 0.00 0.00 84 1010.8
20260505194516 51 74 3.5 7.8 0.00 0.00 0.00 84 1010.6
20260505194017 51 346 4.3 8.7 0.00 0.00 0.00 84 1010.6
20260505193517 52 72 4.3 9.6 0.00 0.00 0.00 84 1010.6
20260505193017 52 69 4.3 9.6 0.00 0.00 0.00 84 1010.7
20260505192517 52 62 5.2 8.7 0.00 0.00 0.00 83 1010.6
20260505191514 52 48 4.3 9.6 0.00 0.00 0.00 82 1010.5
20260505191010 52 56 4.3 7.8 0.00 0.00 0.00 83 1010.5
20260505190508 52 51 4.3 8.7 0.00 0.00 0.00 82 1010.4
20260505190002 53 57 5.2 10.4 0.00 0.00 0.00 81 1010.4
20260505185500 53 94 5.2 9.6 0.00 0.00 0.00 80 1010.4
20260505184954 53 41 4.3 8.7 0.00 0.00 0.00 81 1010.4
20260505184447 53 43 4.3 8.7 0.00 0.00 0.00 80 1010.4
20260505183944 53 34 4.3 8.7 0.00 0.00 0.00 79 1010.4
20260505183440 53 58 4.3 7.8 0.00 0.00 0.00 79 1010.4
20260505182439 54 49 5.2 9.6 0.00 0.00 0.00 78 1010.4
20260505181439 54 49 3.5 7.0 0.00 0.00 0.00 77 1010.3
20260505180938 54 67 3.5 7.0 0.00 0.00 0.00 77 1010.3
20260505175940 54 66 3.5 7.0 0.00 0.00 0.00 77 1010.4
20260505175440 54 60 2.6 5.2 0.00 0.00 0.00 78 1010.3
20260505173934 54 63 4.3 7.8 0.00 0.00 0.00 78 1010.3
20260505173434 54 47 4.3 7.8 0.00 0.00 0.00 78 1010.3
20260505172935 54 46 3.5 8.7 0.00 0.00 0.00 78 1010.3
20260505172436 54 59 4.3 8.7 0.00 0.00 0.00 78 1010.3
20260505171931 54 94 4.3 8.7 0.00 0.00 0.00 78 1010.2
20260505170931 54 41 4.3 8.7 0.00 0.00 0.00 77 1010.3
20260505170431 55 60 4.3 7.8 0.00 0.00 0.00 77 1010.3
20260505165931 55 51 4.3 8.7 0.00 0.00 0.00 75 1010.3
20260505165432 55 41 4.3 8.7 0.00 0.00 0.00 76 1010.3
20260505164926 55 35 4.3 8.7 0.00 0.00 0.00 75 1010.4
20260505164427 55 95 3.5 7.0 0.00 0.00 0.00 77 1010.4
20260505163920 55 60 4.3 7.8 0.00 0.00 0.00 77 1010.3
20260505163420 55 105 4.3 8.7 0.00 0.00 0.00 77 1010.4
20260505162918 55 55 5.2 8.7 0.00 0.00 0.00 77 1010.4
20260505161914 55 57 3.5 9.6 0.00 0.00 0.00 75 1010.4
20260505161415 55 62 4.3 8.7 0.00 0.00 0.00 77 1010.3
20260505160912 55 75 5.2 8.7 0.00 0.00 0.00 77 1010.3
20260505151459 53 59 5.2 8.7 0.00 0.00 0.00 82 1010.7
20260505150958 53 57 4.3 8.7 0.00 0.00 0.00 82 1010.6
20260505150458 53 24 5.2 10.4 0.00 0.00 0.00 84 1010.7